Simultaneous Nadir Overpasses (SNOs) Predictions

Prediction of SNOs between GOES-17 and TERRA Satellite Orbit:

Table of predicted SNOs for the next 14.0 days since TLE Epoch: 2/1/2025
Index Date Time (GOES-17) GOES-17 Lat,Lon TERRA Lat,Lon Distance(km) Time Diff (sec)
1 02/01/2025 16:24:29 0.00,-104.67 -0.41,-102.83 209.93 80
2 02/02/2025 04:44:13 0.00,-104.67 -0.65,-107.62 336.28 80
3 02/04/2025 04:22:56 -0.00,-104.68 0.33,-103.14 175.11 80
4 02/04/2025 16:42:31 -0.01,-104.68 0.66,-107.91 366.28 80
5 02/06/2025 16:26:33 -0.01,-104.69 -0.29,-103.42 145.24 80
6 02/07/2025 04:46:17 0.01,-104.70 -0.73,-108.21 400.13 80
7 02/09/2025 04:24:58 0.01,-104.70 0.20,-103.72 111.30 80
8 02/09/2025 16:44:34 -0.01,-104.70 0.79,-108.49 430.88 80
9 02/11/2025 16:28:35 -0.01,-104.71 -0.18,-104.00 81.72 80
10 02/12/2025 04:48:19 0.02,-104.73 -0.81,-108.80 462.43 80
11 02/14/2025 04:26:58 0.01,-104.74 0.08,-104.29 50.83 80
12 02/14/2025 16:46:34 -0.01,-104.73 0.90,-109.06 491.81 80
